Showing default

IRIDIUM 132, 42961

Orbit data source: Space-Track

IRIDIUM 132, 42961 is a payload satellite owned by Iridium (US) in LEO that was launched on Mon, 09 Oct 2017 UTC via an FALCON 9 launch vehicle from the Air Force Western Test Range (AFWTR). Payload-class satellites include a variety of spacecraft equipped with specific instruments for various scientific and technological missions. These include communications satellites like Starlink; space stations such as the ISS; scientific satellites like the Hubble; Earth observation satellites from companies like Planet Labs, Umbra, and HawkEye 360; GPS; miniature CubeSats for education and research; and military/defense satellites.

Loading next visibility...
Identifier
42961, 2017-061G
Orbit
LEO
Country
Flag of USUS
Related business
Manufacturer
OATK SSG Gilbert
Mission
Operational Commercial Communications
Bus & Motor
ELITEBUS, Unknown motor
Mass
860 kg wet, 700 kg dry
Launch date (UTC)
2017-10-09 (9 years ago)
Launch vehicle
FALCON 9
Launch site
Air Force Western Test Range (AFWTR)
Object type
Payload
Rocket body
Debris
Shape & HBR
Trap Box + 2 Pan, 4.8 m
Radar Cross Section
10.154 m², Large (>1 m²)

Expand to show TLE details & history
Last TLE update: 11 hours ago

TLE from 11 hours ago
0 IRIDIUM 132
1 42961U 17061G   26107.17438303  .00000144  00000-0  44505-4 0  9993
2 42961  86.3978  50.7453 0002283  86.8941 273.2516 14.34217629446076
Epoch: 2026-04-17T04:11Z
TLE epoch observation values (Epoch: 2026-04-17T04:11:06.693Z)
Latitude
-0.00004°
Longitude
142.65605°
Altitude
780.626 km
Speed
7.464 km/s
True Right ascension
03h 22m 58s
True Declination
0° 00' 00"
Sunlit
Object was in daylight at epoch
Visualization orbit readout
Latitude
Unknown
Longitude
Unknown
Altitude
Unknown
Speed
Unknown
Apparent Right ascension
Unknown
Apparent Declination
Unknown
Sunlit
N/A
Visualization observer readout
Local Sidereal Time
22:01:04
Azimuth
Unknown
Elevation
Unknown
Doppler factor
Unknown
Orbital elements
Apogee altitude
776.265 km
Perigee altitude
772.999 km
Semi-major axis
7,152.769 km
Eccentricity
0.00023
Inclination
86.3978°
RAAN
50.7453°
Arg. of periapsis
86.8941°
True anomaly
273.22548°
Mean anomaly
273.2516°
Eccentric anomaly
273.23854°
Mean motion
3.58783 °/min
Orbital period
100.34 mins
BSTAR
0.000044505
Loading maneuver chart data...
Computing Atmospheric mass density...
Loading historical data...
Loading historical data...
Loading historical data...
Loading historical data...
Loading historical data...
Loading historical data...
Loading historical data...

Documentation

Showing up to 5 results
|